Location: Acequia del Cap
(41.7000°N, 0.6167°E)
Time: 16:46:57
(UTC+00:00)

ARIANE 5 R/B - Pass Details

Date: 07 August 2020
Orbit: 749 x 795 km, 98.6° (Epoch: 22 September)

Event Time Altitude Azimuth Distance (km) Brightness Sun altitude
Rises 02:08:27 0° 22° (NNE) 3,296 7.1 -25.2°
Reaches altitude 10° 02:10:58 10° 31° (NNE) 2,366 6.1 -24.9°
Maximum altitude 02:15:46 36° 97° (E) 1,238 3.7 -24.4°
Enters shadow 02:18:00 25° 143° (SE) 1,554 3.9 -24.2°
